Find OneWeb SL0614

NORAD ID: 55156 Int'l Des: 2023-004 Owner: ONEWEBN Country: UK Constellation: oneweb operational
LEOCIRCULARPOLARONEWEB_TYPE

Live Position

Loading 3D Globe...

About OneWeb SL0614

Description loading...

Upcoming Passes

Passes for default location (London). Set your location on the main map for personalized predictions.

Altitude History

Loading altitude history...

Two-Line Element Set

1 55156U 23004S 26127.71788814 .00000521 00000-0 14344-2 0 9999
2 55156 87.8919 29.1262 0001859 86.3818 273.7523 13.11417790160533
Epoch: May 7, 2026 • Age: 10 hours

Current Status

Altitude 1221.5 km
Velocity 7.24 km/s
Sub-Earth Point -4.69°S, 66.6°W
Launch Date Jan 10, 2023
Age 3.3 years
Type internet

Technical Details

Classification Payload
Mass 148.00 kg
Dry Mass 140.00 kg
Total Mass 148.00 kg
Length 1.30 m
Diameter 1.00 m
Span 5.00 m
Shape Trapezoid+2 pan
Manufacturer ONEWUS
Bus Type ARROW
Phase Status In Orbit
Owner/State ONEWEBN/UK

Most Searched